McComb, MS

1:10 AM CDT on June 26, 2017 (GMT -0500)
McComb-Pike County-Lewis

Weather History for KMCB - October, 2010

Change the Weather History Date:

Saturday, October 16, 2010

  Actual Average Record
Temperature  
Mean Temperature 66 °F -  
Max Temperature 86 °F 78 °F 91 °F (2015)
Min Temperature 48 °F 55 °F 38 °F (1977)
Cooling Degree Days 1    
Growing Degree Days 16 (Base 50)    
Moisture  
Dew Point 44 °F    
Average Humidity 51    
Maximum Humidity 86    
Minimum Humidity 18    
Precipitation  
Precipitation 0.00 in - - ()
Sea Level Pressure  
Sea Level Pressure 30.12 in    
Wind  
Wind Speed 1 mph (North)    
Max Wind Speed 9 mph    
Max Gust Speed -    
Visibility 10 miles    
Events      
Averages and records for this station are not official NWS values.
T = Trace of Precipitation, MM = Missing Value Source: NWS Daily Summary

Daily Weather History Graph

Daily Weather History Graph

Search for Another Location

Airport or City:

Trip Planner

Search our weather history database for the weather conditions in past years. The results will help you decide how hot, cold, wet, or windy it might be!

Date:

Astronomy

Oct. 16, 2010 Rise Set
Actual Time 7:05 AM CDT 6:28 PM CDT
Civil Twilight 6:40 AM CDT 6:53 PM CDT
Nautical Twilight 6:12 AM CDT 7:21 PM CDT
Astronomical Twilight 5:44 AM CDT 7:49 PM CDT
Moon 3:00 PM CDT (10/16) 1:22 AM CDT (10/16)
Length of Visible Light 12h 12m
Length of Day
11h 23m
Waxing Gibbous, 67% of the Moon is Illuminated
Oct 16
Waxing Gibbous
Oct 22
Full
Oct 30
Last Quarter
Nov 5
New
Nov 13
First Quarter

Hourly Weather History & Observations

Time (CDT) Temp. Dew Point Humidity Pressure Visibility Wind Dir Wind Speed Gust Speed Precip Events Conditions
12:53 AM 55.0 °F 46.0 °F 72% 30.09 in 10.0 mi Calm Calm - N/A   Clear
1:53 AM 52.0 °F 46.0 °F 80% 30.09 in 10.0 mi Calm Calm - N/A   Clear
2:53 AM 57.9 °F 44.1 °F 60% 30.10 in 10.0 mi NNE 3.5 mph - N/A   Clear
3:53 AM 51.1 °F 45.0 °F 80% 30.11 in 10.0 mi Calm Calm - N/A   Clear
4:53 AM 51.1 °F 45.0 °F 80% 30.12 in 10.0 mi Calm Calm - N/A   Clear
5:53 AM 48.9 °F 45.0 °F 86% 30.12 in 10.0 mi Calm Calm - N/A   Clear
6:53 AM 48.9 °F 45.0 °F 86% 30.14 in 10.0 mi Calm Calm - N/A   Clear
7:53 AM 50.0 °F 46.0 °F 86% 30.15 in 10.0 mi Calm Calm - N/A   Clear
8:53 AM 63.0 °F 45.0 °F 52% 30.17 in 10.0 mi Calm Calm - N/A   Clear
9:53 AM 69.1 °F 46.0 °F 44% 30.17 in 10.0 mi Variable 3.5 mph - N/A   Clear
10:53 AM 75.9 °F 44.1 °F 32% 30.17 in 10.0 mi Calm Calm - N/A   Clear
11:53 AM 80.1 °F 43.0 °F 27% 30.16 in 10.0 mi Calm Calm - N/A   Clear
12:53 PM 82.0 °F 41.0 °F 23% 30.12 in 10.0 mi Variable 5.8 mph - N/A   Clear
1:53 PM 84.0 °F 39.0 °F 20% 30.09 in 10.0 mi Variable 3.5 mph - N/A   Clear
2:53 PM 84.9 °F 39.0 °F 20% 30.07 in 10.0 mi NNW 9.2 mph - N/A   Clear
3:53 PM 84.9 °F 37.0 °F 18% 30.06 in 10.0 mi Calm Calm - N/A   Clear
4:53 PM 84.9 °F 37.9 °F 19% 30.07 in 10.0 mi Calm Calm - N/A   Clear
5:53 PM 84.0 °F 39.0 °F 20% 30.07 in 10.0 mi Calm Calm - N/A   Clear
6:53 PM 71.1 °F 48.0 °F 44% 30.10 in 10.0 mi Calm Calm - N/A   Clear
7:53 PM 64.9 °F 50.0 °F 58% 30.12 in 10.0 mi Calm Calm - N/A   Clear
8:53 PM 64.0 °F 48.9 °F 58% 30.12 in 10.0 mi Calm Calm - N/A   Clear
9:53 PM 62.1 °F 46.9 °F 58% 30.13 in 10.0 mi NNW 3.5 mph - N/A   Clear
10:53 PM 64.9 °F 45.0 °F 48% 30.13 in 10.0 mi North 4.6 mph - N/A   Clear
11:53 PM 64.9 °F 43.0 °F 45% 30.12 in 10.0 mi North 3.5 mph - N/A   Clear